Hlavní strana
METAR-TAF:

METAR-TAF

Letiště :

Taylorville Municipal Airport

Taylorville, Illinois, Spojené státy americké

zeměpisná šířka: 39-32-03N, zeměpisná délka: 089-19-40W, výška: 190 m

Aktuální stav počasí

Zpráva byla vytvořena před 24 minutami, v 04:35 UTC
Západojihozápadní vítr 10 kt
Teplota 0°C
Vlhkost vzduchu 100%
Tlak 1012 hPa
Viditelnost: 8.0 km
Zataženo ve výšce 500 ft
kouřmo

METAR: KTAZ 250435Z AUTO 25010KT 5SM BR OVC005 00/00 A2989 RMK AO2 T00010000

Čas: 22:59 (04:59 UTC)


TAF: chybějící

Stav a předpovědi počasí z více než 4 000 letišť (zprávy METAR a TAF).

Červené a žluté tečky na mapě představují dostupné meteorologické stanice.

Když kurzor umístíte na tečku, zobrazí se název stanice.

Pak kliknutím zobrazíte stav a předpověď počasí.

Chcete-li změnit mapu, kliknutím na zelené tlačítko se znaménkem +mapu přiblížíte, kliknutím na zelené tlačítko se znaménkem – mapu oddálíte a kliknutím na zelené šipky přejdete na sousední mapy.


METAR-TAF: